TimeCET,TemperatureF,Dew PointF,Humidity,Sea Level PressureIn,VisibilityMPH,Wind Direction,Wind SpeedMPH,Gust SpeedMPH,PrecipitationIn,Events,Conditions,WindDirDegrees,DateUTC
12:25 AM,39.2,37.4,93,30.12,3.1,ESE,12.7,-,N/A,,Scattered Clouds,110,2012-12-19 23:25:00
12:55 AM,39.2,37.4,93,30.09,3.1,ESE,12.7,-,N/A,,Scattered Clouds,110,2012-12-19 23:55:00
1:00 AM,39,37,91,30.12,3,ESE,11.2,,,,Mist,110,2012-12-20 00:00:00
1:25 AM,39.2,37.4,93,30.09,3.1,ESE,13.8,-,N/A,,Mostly Cloudy,110,2012-12-20 00:25:00
1:55 AM,39.2,37.4,93,30.09,3.1,ESE,13.8,-,N/A,,Mostly Cloudy,110,2012-12-20 00:55:00
2:25 AM,39.2,35.6,87,30.06,3.1,ESE,15.0,-,N/A,,Partly Cloudy,110,2012-12-20 01:25:00
2:55 AM,39.2,35.6,87,30.06,3.1,ESE,15.0,-,N/A,,Partly Cloudy,110,2012-12-20 01:55:00
3:25 AM,39.2,35.6,87,30.04,3.7,ESE,15.0,-,N/A,,Partly Cloudy,110,2012-12-20 02:25:00
3:55 AM,39.2,35.6,87,30.04,4.3,ESE,15.0,-,N/A,,Partly Cloudy,110,2012-12-20 02:55:00
4:00 AM,38,36,87,30.05,4,East,13.4,,,,Mist,100,2012-12-20 03:00:00
4:25 AM,37.4,35.6,93,30.04,3.7,ESE,13.8,-,N/A,,Partly Cloudy,110,2012-12-20 03:25:00
4:55 AM,37.4,35.6,93,30.01,3.7,ESE,13.8,-,N/A,,Partly Cloudy,110,2012-12-20 03:55:00
5:25 AM,37.4,35.6,93,30.01,4.3,ESE,13.8,-,N/A,,Partly Cloudy,110,2012-12-20 04:25:00
5:55 AM,37.4,35.6,93,30.01,4.3,ESE,15.0,-,N/A,,Partly Cloudy,110,2012-12-20 04:55:00
6:25 AM,37.4,35.6,93,29.98,5.0,ESE,18.4,-,N/A,,Unknown,110,2012-12-20 05:25:00
6:55 AM,37.4,33.8,87,29.98,5.6,ESE,15.0,-,N/A,,Unknown,110,2012-12-20 05:55:00
7:25 AM,37.4,33.8,87,29.95,-9999.0,ESE,17.3,-,N/A,,Clear,110,2012-12-20 06:25:00
7:55 AM,37.4,33.8,87,29.95,-9999.0,East,17.3,-,N/A,,Clear,100,2012-12-20 06:55:00
8:25 AM,37.4,33.8,87,29.95,-9999.0,ESE,17.3,-,N/A,,Clear,110,2012-12-20 07:25:00
8:55 AM,37.4,33.8,87,29.92,-9999.0,ESE,18.4,-,N/A,,Clear,110,2012-12-20 07:55:00
9:25 AM,37.4,33.8,87,29.92,-9999.0,ESE,17.3,-,N/A,,Clear,110,2012-12-20 08:25:00
9:55 AM,37.4,33.8,87,29.92,-9999.0,ESE,19.6,-,N/A,,Clear,110,2012-12-20 08:55:00
10:00 AM,38,33,76,29.92,9,ESE,17.9,,,,Overcast,110,2012-12-20 09:00:00
10:25 AM,37.4,33.8,87,29.89,-9999.0,ESE,18.4,-,N/A,,Clear,110,2012-12-20 09:25:00
10:55 AM,39.2,33.8,81,29.89,-9999.0,ESE,17.3,-,N/A,,Clear,110,2012-12-20 09:55:00
11:25 AM,39.2,33.8,81,29.89,-9999.0,ESE,18.4,-,N/A,,Clear,110,2012-12-20 10:25:00
11:55 AM,39.2,33.8,81,29.86,6.2,ESE,18.4,31.1,N/A,,Partly Cloudy,120,2012-12-20 10:55:00
12:25 PM,39.2,33.8,81,29.86,6.2,ESE,18.4,-,N/A,,Mostly Cloudy,120,2012-12-20 11:25:00
12:55 PM,39.2,33.8,81,29.83,6.2,ESE,17.3,-,N/A,,Mostly Cloudy,120,2012-12-20 11:55:00
1:00 PM,40,33,67,29.85,12,ESE,17.9,,,,Partly Cloudy,120,2012-12-20 12:00:00
1:25 PM,39.2,32.0,75,29.83,6.2,ESE,18.4,-,N/A,,Overcast,120,2012-12-20 12:25:00
1:55 PM,39.2,32.0,75,29.83,6.2,ESE,18.4,-,N/A,,Overcast,120,2012-12-20 12:55:00
2:25 PM,39.2,32.0,75,29.80,6.2,ESE,18.4,-,N/A,Rain,Light Rain,120,2012-12-20 13:25:00
2:55 PM,39.2,33.8,81,29.80,5.6,ESE,19.6,-,N/A,Rain,Light Rain,110,2012-12-20 13:55:00
3:25 PM,39.2,33.8,81,29.77,5.0,ESE,19.6,-,N/A,Rain,Light Rain,110,2012-12-20 14:25:00
3:55 PM,39.2,33.8,81,29.77,5.0,ESE,19.6,-,N/A,Rain,Light Rain,110,2012-12-20 14:55:00
4:00 PM,38,35,83,29.79,6,ESE,20.1,,,Rain,Light Rain,110,2012-12-20 15:00:00
4:25 PM,37.4,35.6,93,29.77,5.0,ESE,18.4,-,N/A,Rain,Light Rain,110,2012-12-20 15:25:00
4:55 PM,37.4,35.6,93,29.77,5.0,ESE,17.3,-,N/A,Rain,Light Rain,120,2012-12-20 15:55:00
5:25 PM,37.4,35.6,93,29.77,4.3,ESE,16.1,-,N/A,Rain,Light Rain,120,2012-12-20 16:25:00
5:55 PM,37.4,35.6,93,29.77,5.0,ESE,17.3,-,N/A,Rain,Light Rain,120,2012-12-20 16:55:00
6:25 PM,37.4,35.6,93,29.74,3.7,ESE,16.1,-,N/A,Rain,Light Rain,120,2012-12-20 17:25:00
6:55 PM,37.4,35.6,93,29.74,3.1,ESE,16.1,-,N/A,Rain,Light Rain,120,2012-12-20 17:55:00
7:00 PM,38,36,89,29.76,4,ESE,15.7,,,Rain,Light Rain,120,2012-12-20 18:00:00
7:25 PM,37.4,35.6,93,29.74,3.7,ESE,17.3,-,N/A,Rain,Light Rain,120,2012-12-20 18:25:00
7:55 PM,37.4,35.6,93,29.74,3.7,ESE,16.1,-,N/A,Rain,Light Rain,120,2012-12-20 18:55:00
8:25 PM,37.4,35.6,93,29.74,3.7,ESE,17.3,-,N/A,Rain,Light Rain,120,2012-12-20 19:25:00
8:55 PM,37.4,35.6,93,29.74,4.3,ESE,16.1,-,N/A,Rain,Light Rain,120,2012-12-20 19:55:00
9:25 PM,37.4,35.6,93,29.74,3.1,ESE,15.0,-,N/A,Rain,Light Rain,120,2012-12-20 20:25:00
9:55 PM,37.4,35.6,93,29.74,3.7,ESE,17.3,-,N/A,Rain,Light Rain,120,2012-12-20 20:55:00
10:00 PM,37,36,92,29.74,4,ESE,15.7,,,Rain,Light Rain,120,2012-12-20 21:00:00
10:25 PM,37.4,35.6,93,29.71,3.7,ESE,18.4,-,N/A,Rain,Light Rain,120,2012-12-20 21:25:00
10:55 PM,37.4,35.6,93,29.71,3.7,ESE,17.3,-,N/A,Rain,Light Rain,120,2012-12-20 21:55:00
11:25 PM,37.4,35.6,93,29.71,3.1,ESE,17.3,-,N/A,Rain,Light Rain,120,2012-12-20 22:25:00
11:55 PM,37.4,35.6,93,29.71,3.1,ESE,16.1,-,N/A,Rain,Light Rain,120,2012-12-20 22:55:00